Terug naar catalogus

LUCH

ActiefCommunicatieGEO
NORAD 23426·PAYLOAD·🇷🇺 Russia

Gelanceerd Dec 16, 1994 vanaf Baikonur Cosmodrome

Loading…

TLE

VersSource: Space-Track

Epoch: Sep 14, 2026, 09:07 UTC

1 23426U 94082A   26257.37993661  .00000064  00000-0  00000-0 0  9996
2 23426  14.7377 353.8947 0006878 212.9370 147.0392  1.00174553116156

Volg LUCH in realtime met AllMySat

Download on the App Store